www.pogodaiklimat.ru
ПОГОДА в Вестмистере
Время
и дата
10:20 20.05
10:45 20.05
11:05 20.05
11:25 20.05
11:45 20.05
12:05 20.05
12:25 20.05
12:40 20.05
13:00 20.05
13:20 20.05
13:40 20.05
14:00 20.05
14:20 20.05
14:40 20.05
15:05 20.05
15:25 20.05
15:45 20.05
16:05 20.05
16:25 20.05
16:40 20.05
17:00 20.05
17:20 20.05
17:40 20.05
18:00 20.05
18:20 20.05
18:40 20.05
19:00 20.05
19:20 20.05
19:40 20.05
20:00 20.05
20:20 20.05
20:40 20.05
21:05 20.05
21:25 20.05
21:45 20.05
22:05 20.05
22:20 20.05
22:40 20.05
23:00 20.05
23:20 20.05
23:40 20.05
00:00 21.05
00:20 21.05
00:40 21.05
01:00 21.05
01:20 21.05
01:40 21.05
02:05 21.05
Ветер
(напр.,м/с)
Видим. Явления Облачность Т
(С)
Тd
(С)
f
(%)
Тe
(С)
Тes
(С)
Комфортность P
(гПа)
Po
(гПа)
Тmin
(С)
Tmax
(С)
R
(мм)
R24
(мм)
S
(см)
штиль 0 16 км 8/8 360 м +21.0 +16.0 73 +24 +28 комфорт 989.7
штиль 0 16 км 8/8 420 м +22.0 +16.0 69 +26 +30 душно 989.7
штиль 0 16 км 5/5 480 м +22.0 +16.0 69 +26 +38 душно 989.7
штиль 0 16 км 5/5 600 м +23.0 +17.0 69 +28 +40 душно 989.4
Ю 2 16 км 5/5 600 м +23.0 +17.0 69 +28 +37 душно 989.1
ЮЗ 2 16 км 5/5 660 м +24.0 +17.0 65 +28 +38 душно 989.1
С 2 16 км 5/5 780 м +25.0 +17.0 61 +29 +39 душно 988.7
З 2 16 км 8/8 780 м +25.0 +17.0 61 +29 +33 душно 988.4
З 2 16 км 5/5 840 м +26.0 +17.0 58 +30 +39 душно 988.7
штиль 0 16 км 5/5 960 м +26.0 +17.0 58 +30 +43 душно 988.4
штиль 0 16 км 5/5 1020 м +27.0 +17.0 54 +31 +44 душно 988.4
штиль 0 16 км 5/5 1020 м +27.0 +17.0 54 +31 +42 душно 988.4
З 2 16 км ясно +27.0 +16.0 51 +30 +47 душно 988.1
Ю 2 16 км ясно +29.0 +16.0 45 +32 +49 душно 987.8
штиль 0 16 км ясно +28.0 +16.0 48 +31 +48 душно 987.4
штиль 0 16 км ясно +28.0 +15.0 45 +31 +47 душно 987.4
Ю 2 16 км 5/5 1500 м +29.0 +15.0 43 +32 +38 душно 987.4
Ю 2 16 км 5/5 1500 м +29.0 +14.0 40 +31 +35 жарко 987.1
штиль 0 16 км 5/5 1500 м +29.0 +14.0 40 +31 +36 жарко 987.1
Ю 2 16 км 5/5 1500 м +29.0 +16.0 45 +32 +36 душно 987.1
ЮВ 2 16 км ясно +29.0 +15.0 43 +32 +36 душно 987.1
ЮВ 2 16 км 5/5 1500 м +29.0 +16.0 45 +32 +34 душно 986.8
Ю 2 16 км 5/5 1500 м +28.0 +16.0 48 +31 +33 душно 987.1
Ю 2 16 км 5/5 1500 м +28.0 +16.0 48 +31 +32 душно 987.1
Ю 2 16 км ясно +28.0 +16.0 48 +31 +33 душно 987.4
Ю 2 16 км ясно +26.0 +16.0 54 +29 +31 душно 987.4
Ю 3 16 км ясно +26.0 +16.0 54 +29 +29 душно 987.4
штиль 0 16 км ясно +24.0 +17.0 65 +28 +28 душно 987.4
ЮВ 2 16 км ясно +23.0 +18.0 73 +28 +29 душно 987.4
штиль 0 16 км ясно +23.0 +18.0 73 +28 +28 душно 987.8
Ю 2 16 км ясно +22.0 +18.0 78 +27 +27 душно 988.1
Ю 2 16 км ясно +22.0 +17.0 73 +26 +26 душно 988.1
Ю 2 16 км ясно +21.0 +17.0 78 +26 +26 душно 988.1
ЮВ 2 16 км ясно +21.0 +17.0 78 +26 +26 душно 988.1
Ю 3 16 км ясно +21.0 +17.0 78 +25 +25 комфорт 987.8
Ю 2 16 км ясно +20.0 +17.0 83 +23 +23 комфорт 987.8
Ю 2 16 км ясно +20.0 +17.0 83 +23 +23 комфорт 987.8
Ю 2 16 км ясно +19.0 +17.0 88 +21 +21 комфорт 987.8
ЮВ 2 16 км ясно +19.0 +17.0 88 +21 +21 комфорт 987.8
Ю 2 16 км ясно +19.0 +17.0 88 +21 +21 комфорт 987.8
Ю 2 16 км ясно +19.0 +17.0 88 +21 +21 комфорт 987.8
Ю 2 16 км ясно +18.0 +17.0 94 +19 +19 987.8
Ю 2 16 км ясно +18.0 +17.0 94 +19 +19 987.8
Ю 2 16 км ясно +18.0 +17.0 94 +19 +19 987.8
Ю 2 16 км ясно +18.0 +17.0 94 +19 +19 987.4
Ю 2 16 км ясно +18.0 +17.0 94 +19 +19 987.4
Ю 2 16 км ясно +18.0 +17.0 94 +19 +19 987.4
штиль 0 16 км ясно +18.0 +17.0 94 +18 +18 987.1
Местоположение метеостанции Carroll County Regional Jack B Poage Field: широта 39.6100 долгота -77.0100 высота над уровнем моря 241 м.
В архиве по умолчанию представлена погода в Вестмистере за последние 1-2 суток. Обновление информации о фактической погоде в базе происходит ежечасно! Архивные данные за месяц целиком и за предыдущие месяцы Вы можете получить, выбрав интересующий диапазон дат из раскрывающегося списка и нажав кнопку "Ввод!".
Внимание! Архив погоды МЕТАР в базе сайта по станциям, не включенным в климатический монитор, хранится не более 60 дней. Нет смысла пытаться выбрать более раннюю дату.
*Определитесь, кто Вы:
Внимание! Время в таблицах - местное (без учета летнего времени). Для получения всемирного времени необходимо вычесть поправку, которая равна -5 ч.
Смотрите также архив погоды в соседних городах и на ближайших метеорологических станциях:
Партнеры нашего сайта:      
Пояснения к столбцам:
  • Ветер - указаны скорость ветра в м/с - средняя за 10 мин, порывы в срок и между сроками (в фигурных скобках) и направление, откуда дует ветер: С - северный,
  • СВ - северо-восточный, В - восточный, ЮВ - юго-восточный, Ю - южный, ЮЗ - юго-западный, З - западный, СЗ - северо-западный.
  • Видимость - горизонтальная дальность видимости в метрах или километрах. При видимости от 1 до 10 км при отсутствии осадков обычно наблюдается дымка, при ухудшении видимости до 1 км и менее - туман. В сухую погоду видимость может ухудшаться дымом, пылью или мглою.
  • Явления - указаны атмосферные явления, наблюдавшиеся в срок или в последний час перед сроком; фигурными скобками обозначены явления, наблюдавшиеся между сроками (за 1-3 часа до срока); квадратными скобками обозначены град или гололедные отложения с указанием их диаметра в мм.
  • Облачность - указаны через наклонную черту общая и нижняя облачность в баллах и высота нижней границы облаков в метрах; квадратными скобками обозначены формы облаков: Ci - перистые, Cs - перисто-слоистые, Cc - перисто-кучевые, Ac - высококучевые, As - высокослоистые, Sc - слоисто-кучевые, Ns - слоисто-дождевые, Cu - кучевые, Cb - кучево-дождевые. Подробнее классификацию облаков см. в Атласе облаков (PDF).
  • T - Температура воздуха - температура, измеренная на высоте 2 м над землей.
  • Td - Температура точки росы - температура, при понижении до которой содержащийся в воздухе водяной пар достигнет насыщения.
  • f - Относительная влажность воздуха - влажноcть воздуха, измеренная на высоте 2 м над землей.
  • Te - Эффективная температура - температура, которую ощущает одетый по сезону человек в тени. Характеристика душности погоды. При расчете учитывается влияние влажности воздуха и скорости ветра на теплоощущения человека.
  • Tes - Эффективная температура на солнце - температура, которую ощущает человек, с поправкой на солнечный нагрев. Характеристика знойности погоды. Зависит от высоты солнца над горизонтом, облачности и скорости ветра. Ночью, в пасмурную погоду, а также при ветре 12 м/с и более поправка равна нулю.
  • P - Атмосферное давление - приведенное к уровню моря атмосферное давление.
  • Po - Атмосферное давление - измеренное на уровне метеостанции атмосферное давление.
  • Tmin - Минимальная температура - минимум температуры воздуха на высоте 2 м над землей.
  • Tmax - Максимальная температура - максимум температуры воздуха на высоте 2 м над землей.
  • R - Количество осадков - Количество выпавших осадков за период времени, мм. При наведении курсора мыши на число - период времени, за который выпало указанное количество осадков.
  • R24 - Количество осадков - Количество выпавших осадков за 24 часа, мм.
  • S - Снежный покров - Высота снежного покрова, см. При наведении курсора мыши на число - состояние снежного покрова и степень покрытия местности в баллах.